[Date Prev][Date Next][Thread Prev][Thread Next] - [Date Index][Thread Index][Author Index]

2 Line ISS Keps 11-10



ISS
1 25544U 98067A   05313.93566318  .00018674  00000-0  12792-3 0  7216
2 25544 051.6432 233.8677 0002043 126.6471 321.8259 15.74798131398629
----
Via the sarex mailing list at AMSAT.ORG courtesy of AMSAT-NA.
To unsubscribe, send "unsubscribe sarex" to Majordomo@amsat.org



AMSAT Top AMSAT Home